D0A00670 Weather Reports


Display with metric or nautical units.
time (UTC)temp
F
wind
direction
speed
MPH
gust
MPH
rain 1hr
in
rain 24hr
in
rain mn
in
humidity
%
barometer
mb
20260507083034 52 267 2.0 9.0 0.00 0.01 0.00 79 1014.1
20260507081529 52 297 3.0 9.0 0.00 0.01 0.00 80 1014.0
20260507080029 52 319 3.0 9.0 0.00 0.01 0.00 81 1013.8
20260507074525 51 288 3.0 9.0 0.00 0.01 0.00 81 1013.7
20260507073023 51 290 3.0 8.0 0.00 0.01 0.00 82 1013.5
20260507071521 51 279 3.0 9.0 0.00 0.01 0.00 81 1013.4
20260507070027 51 335 4.0 8.0 0.00 0.01 0.00 81 1013.2
20260507064516 51 294 3.0 6.0 0.00 0.01 0.00 82 1013.1
20260507063015 51 286 3.0 9.0 0.00 0.01 0.00 82 1013.0
20260507061513 51 266 3.0 8.0 0.00 0.01 0.00 82 1012.9
20260507060010 51 332 6.0 11.0 0.00 0.01 0.00 82 1012.7
20260507054515 51 301 5.0 11.0 0.00 0.01 0.00 82 1012.5
20260507053003 51 285 3.0 7.0 0.00 0.01 0.00 83 1012.4
20260507051607 51 244 3.0 5.0 0.00 0.01 0.00 83 1012.2
20260507050057 51 294 2.0 4.0 0.00 0.01 0.00 84 1011.9
20260507044556 51 278 2.0 6.0 0.00 0.01 0.00 84 1011.8
20260507043054 51 269 2.0 4.0 0.00 0.01 0.00 84 1011.6
20260507041552 51 280 3.0 6.0 0.00 0.01 0.00 84 1011.4
20260507040054 51 294 2.0 5.0 0.00 0.01 0.00 85 1011.3
20260507034555 51 245 2.0 5.0 0.00 0.01 0.00 85 1011.2
20260507033051 51 244 3.0 7.0 0.00 0.01 0.00 85 1011.2
20260507031545 51 258 2.0 6.0 0.00 0.01 0.00 85 1010.9
20260507030044 51 264 2.0 7.0 0.00 0.01 0.00 85 1010.8
20260507024543 51 261 2.0 8.0 0.00 0.01 0.00 85 1010.8
20260507023047 51 290 4.0 8.0 0.00 0.01 0.00 85 1010.7
20260507021543 51 303 4.0 10.0 0.00 0.01 0.00 85 1010.6
20260507020055 51 271 3.0 9.0 0.00 0.01 0.00 85 1010.4
20260507014536 51 291 4.0 9.0 0.00 0.01 0.00 85 1010.4
20260507013047 51 287 4.0 12.0 0.00 0.01 0.00 85 1010.3
20260507011533 51 267 2.0 8.0 0.00 0.01 0.00 84 1010.2
20260507010035 51 273 3.0 8.0 0.00 0.01 0.00 84 1010.1
20260507004529 51 265 2.0 6.0 0.00 0.01 0.00 84 1010.2
20260507003038 51 259 2.0 9.0 0.00 0.01 0.00 84 1010.2
20260507001527 51 282 3.0 6.0 0.00 0.01 0.00 84 1010.1
20260507000030 51 263 2.0 5.0 0.00 0.01 0.00 84 1010.1
20260506234524 51 309 2.0 7.0 0.00 0.01 0.00 84 1010.1
20260506233027 51 310 2.0 6.0 0.00 0.01 0.00 84 1010.0
20260506231521 51 287 1.0 5.0 0.00 0.01 0.00 84 1009.9
20260506230020 51 264 3.0 7.0 0.00 0.01 0.00 84 1009.8
20260506224518 51 285 5.0 9.0 0.00 0.01 0.00 84 1009.7
20260506223015 51 286 3.0 5.0 0.00 0.01 0.00 84 1009.7
20260506221514 51 323 2.0 4.0 0.00 0.01 0.00 85 1009.6
20260506220012 51 341 1.0 6.0 0.00 0.01 0.00 85 1009.4
20260506214510 51 286 2.0 10.0 0.00 0.05 0.01 84 1009.3
20260506213008 51 307 3.0 12.0 0.00 0.05 0.01 84 1009.2
20260506211505 52 336 2.0 5.0 0.00 0.05 0.01 84 1009.1
20260506210006 52 323 4.0 8.0 0.00 0.05 0.01 84 1008.9
20260506204501 52 313 2.0 10.0 0.00 0.08 0.01 83 1008.7
20260506203059 53 314 3.0 10.0 0.00 0.08 0.01 83 1008.7
20260506201555 53 276 2.0 8.0 0.00 0.08 0.01 82 1008.5
20260506200053 53 298 2.0 10.0 0.00 0.08 0.01 82 1008.4
20260506194551 54 349 3.0 9.0 0.00 0.08 0.01 82 1008.3
20260506193048 54 323 2.0 5.0 0.00 0.08 0.01 82 1008.1
20260506191546 54 274 3.0 8.0 0.00 0.08 0.01 82 1007.9
20260506190044 55 232 2.0 8.0 0.00 0.08 0.01 81 1007.8
20260506184549 55 291 2.0 8.0 0.00 0.08 0.01 81 1007.5
20260506183052 55 334 4.0 10.0 0.00 0.08 0.01 81 1007.1
20260506181604 56 277 5.0 11.0 0.00 0.08 0.01 81 1007.0
20260506180037 56 320 4.0 11.0 0.00 0.08 0.01 81 1006.8
20260506174534 57 277 5.0 13.0 0.00 0.08 0.01 81 1006.7
20260506173048 57 292 6.0 13.0 0.00 0.08 0.01 81 1006.4
20260506171533 57 286 7.0 15.0 0.00 0.08 0.01 82 1006.2
20260506170038 58 270 5.0 11.0 0.00 0.08 0.01 81 1006.2
20260506164537 58 315 7.0 13.0 0.00 0.08 0.01 81 1006.1
20260506163035 58 304 8.0 17.0 0.00 0.08 0.01 79 1006.3
20260506161528 60 225 4.0 13.0 0.00 0.08 0.01 76 1006.1
20260506160026 62 280 8.0 17.0 0.00 0.08 0.01 71 1005.9
20260506154526 64 269 10.0 18.0 0.00 0.09 0.01 67 1005.8
20260506153025 64 248 6.0 13.0 0.00 0.09 0.01 64 1005.5
20260506151524 64 258 3.0 10.0 0.00 0.09 0.01 64 1005.4
20260506150024 65 209 4.0 14.0 0.00 0.09 0.01 62 1005.2
20260506144525 65 201 5.0 10.0 0.00 0.11 0.01 62 1005.1
20260506143023 66 228 7.0 13.0 0.00 0.11 0.01 61 1005.2
20260506141521 64 281 3.0 13.0 0.00 0.11 0.01 64 1005.2
20260506140021 64 207 4.0 9.0 0.00 0.11 0.01 63 1005.2
20260506134519 65 247 4.0 13.0 0.00 0.22 0.01 63 1005.2
20260506133022 65 218 6.0 13.0 0.00 0.22 0.01 62 1005.2
20260506131524 65 236 7.0 12.0 0.00 0.22 0.01 61 1005.3
20260506130016 65 212 4.0 15.0 0.00 0.22 0.01 61 1005.2
20260506124514 65 251 4.0 14.0 0.00 0.22 0.01 64 1005.3
20260506123014 65 176 7.0 14.0 0.00 0.22 0.01 63 1005.2
20260506121509 65 222 5.0 14.0 0.00 0.22 0.01 63 1005.3
20260506120016 64 250 5.0 11.0 0.00 0.22 0.01 63 1005.4
20260506114518 64 192 6.0 10.0 0.00 0.22 0.01 64 1005.5
20260506113021 64 251 1.0 10.0 0.00 0.22 0.01 65 1005.5
20260506111504 64 194 7.0 13.0 0.00 0.22 0.01 66 1005.6
20260506110003 63 210 5.0 8.0 0.00 0.22 0.01 69 1005.7
20260506104606 62 213 5.0 11.0 0.00 0.22 0.01 69 1005.8
20260506103100 62 223 5.0 10.0 0.00 0.22 0.01 69 1005.9
20260506101557 61 255 5.0 11.0 0.00 0.22 0.01 70 1006.0
20260506100056 61 230 5.0 10.0 0.00 0.22 0.01 72 1006.0
20260506094557 60 243 6.0 10.0 0.00 0.22 0.01 73 1006.0
20260506093056 60 247 4.0 9.0 0.01 0.22 0.01 72 1005.9
20260506091559 61 235 4.0 9.0 0.01 0.22 0.01 70 1005.7
20260506090100 61 255 5.0 14.0 0.01 0.22 0.01 71 1005.8
20260506084553 61 223 8.0 12.0 0.01 0.22 0.01 71 1005.8